Wolke Sonne

Wetter Roßtal 2 (alt)

Gehe zu: Roßtal | Ammerndorf

Tageswerte vom Freitag, 20.10.2017

Optionen

Tag:
Erweitert:

Alle Werte vom Freitag, 20.10.2017

Einen Moment bitte, die Daten werden aufbereitet...

UhrzeitTemperaturFeuchteLuftdruckNiederschlagNiederschlag?WindWindrichtungHelligkeitSonne?Uhrzeit
Diagramm IconDiagramm IconDiagramm IconDiagramm IconDiagramm IconDiagramm IconDiagramm IconDiagramm IconDiagramm Icon
00:0010,6 °C 78 % 1016,7 hPa 0,0 mm nein 4,0 km/h SSW 0,000 klux nein 00:00
00:1510,5 °C 78 % 1016,7 hPa 0,0 mm nein 3,1 km/h SSW 0,000 klux nein 00:15
00:3010,4 °C 78 % 1016,7 hPa 0,0 mm nein 2,6 km/h SSW 0,000 klux nein 00:30
00:4510,3 °C 78 % 1016,7 hPa 0,0 mm nein 0,0 km/h SSW 0,000 klux nein 00:45
01:0010,1 °C 78 % 1016,8 hPa 0,0 mm nein 4,2 km/h SSW 0,000 klux nein 01:00
01:1510,0 °C 78 % 1016,8 hPa 0,0 mm nein 5,2 km/h SSW 0,000 klux nein 01:15
01:309,9 °C 78 % 1016,8 hPa 0,0 mm nein 0,0 km/h SSW 0,000 klux nein 01:30
01:459,8 °C 78 % 1016,8 hPa 0,0 mm nein 3,1 km/h SSW 0,000 klux nein 01:45
02:009,7 °C 78 % 1016,8 hPa 0,0 mm nein 7,6 km/h SSW 0,000 klux nein 02:00
02:159,8 °C 78 % 1016,8 hPa 0,0 mm nein 8,1 km/h SSW 0,000 klux nein 02:15
02:309,7 °C 78 % 1016,8 hPa 0,0 mm nein 5,4 km/h SSW 0,000 klux nein 02:30
02:459,6 °C 77 % 1016,8 hPa 0,0 mm nein 2,0 km/h SSW 0,000 klux nein 02:45
03:009,7 °C 77 % 1016,8 hPa 0,0 mm nein 0,0 km/h SSW 0,000 klux nein 03:00
03:159,8 °C 77 % 1016,8 hPa 0,0 mm nein 0,0 km/h SSW 0,000 klux nein 03:15
03:309,7 °C 77 % 1016,8 hPa 0,0 mm nein 0,0 km/h SSW 0,000 klux nein 03:30
03:459,8 °C 77 % 1016,8 hPa 0,0 mm nein 0,0 km/h SSW 0,000 klux nein 03:45
04:009,8 °C 77 % 1016,8 hPa 0,0 mm nein 0,0 km/h SSW 0,000 klux nein 04:00
04:159,8 °C 77 % 1016,8 hPa 0,0 mm nein 0,0 km/h SSW 0,000 klux nein 04:15
04:309,9 °C 77 % 1016,8 hPa 0,0 mm nein 0,0 km/h SSW 0,000 klux nein 04:30
04:459,9 °C 77 % 1016,8 hPa 0,0 mm nein 0,0 km/h SSW 0,000 klux nein 04:45
05:009,9 °C 77 % 1016,8 hPa 0,0 mm nein 0,0 km/h SSW 0,000 klux nein 05:00
05:1510,0 °C 77 % 1016,8 hPa 0,0 mm nein 0,0 km/h SSW 0,000 klux nein 05:15
05:3010,0 °C 77 % 1016,8 hPa 0,0 mm nein 0,0 km/h SSW 0,000 klux nein 05:30
05:4510,0 °C 77 % 1016,8 hPa 0,0 mm nein 0,0 km/h SSW 0,000 klux nein 05:45
UhrzeitTemperaturFeuchteLuftdruckNiederschlagNiederschlag?WindWindrichtungHelligkeitSonne?Uhrzeit
06:0010,1 °C 77 % 1016,8 hPa 0,0 mm nein 3,3 km/h SSW 0,000 klux nein 06:00
06:1510,1 °C 76 % 1016,8 hPa 0,0 mm nein 6,1 km/h SSW 0,000 klux nein 06:15
06:3010,1 °C 76 % 1016,8 hPa 0,0 mm nein 0,9 km/h SSW 0,000 klux nein 06:30
06:4510,2 °C 76 % 1016,7 hPa 0,0 mm nein 1,1 km/h SSW 0,000 klux nein 06:45
07:0010,1 °C 76 % 1016,8 hPa 0,0 mm nein 0,0 km/h SSW 0,000 klux nein 07:00
07:1510,0 °C 76 % 1016,8 hPa 0,0 mm nein 0,0 km/h S 0,000 klux nein 07:15
07:3010,0 °C 76 % 1016,8 hPa 0,0 mm nein 0,0 km/h S 0,000 klux nein 07:30
07:4510,0 °C 76 % 1016,8 hPa 0,0 mm nein 3,9 km/h SSW 0,000 klux nein 07:45
08:0010,0 °C 76 % 1016,8 hPa 0,0 mm nein 0,6 km/h SSW 0,062 klux nein 08:00
08:1510,0 °C 76 % 1016,8 hPa 0,0 mm nein 6,8 km/h SSW 0,298 klux nein 08:15
08:3010,1 °C 76 % 1016,8 hPa 0,0 mm nein 4,8 km/h S 0,725 klux nein 08:30
08:4510,3 °C 76 % 1016,7 hPa 0,0 mm nein 6,0 km/h S 5,000 klux nein 08:45
Gesamt: 10,0 °C 77 % 1016,8 hPa 0,0 mm nein 2,2 km/h 0 0,169 klux nein

Insgesamt 36 Zeilen mal 9 Spalten = 324 Werte werden angezeigt.

www.wetter-rosstal.de   •   www.wetter-franken.de   •   www.lightningmaps.org   •   Start   •   Kontakt / Datenschutz   •   PC-Kümmerer